{"data":{"norad_id":62239,"epoch":"2026-09-22T19:49:55.983360Z","epoch_age_seconds":109149,"freshness":"FRESH","line1":"1 62239U 24232C   26265.82634240  .00000090  00000+0  12115-3 0  9996","line2":"2 62239  89.0167  12.7431 0016470  95.9616 264.3413 13.51029354137587","mean_motion":13.51029354,"eccentricity":0.001647,"inclination_deg":89.0167,"raan_deg":12.7431,"arg_perigee_deg":95.9616,"mean_anomaly_deg":264.3413,"bstar":0.00012115,"rev_number":13758,"period_min":106.58539695948,"perigee_km":1056.2091530801,"apogee_km":1080.7382887949,"semimajor_km":7446.6107209375,"source":"CELESTRAK","updated_at":"2026-09-23T09:00:21.306744Z"}}